Find Starlink 5652

NORAD ID: 55334 Int'l Des: 2023-013 Owner: SPXS Country: US Constellation: starlink operational
LEOCIRCULAR

Live Position

Loading 3D Globe...

About Starlink 5652

Description loading...

Upcoming Passes

Passes for default location (London). Set your location on the main map for personalized predictions.

Altitude History

Loading altitude history...

Two-Line Element Set

1 55334U 23013D 26124.34026159 -.00000221 00000-0 14527-5 0 9994
2 55334 43.0066 349.0963 0001594 260.1754 99.8918 15.26738730180183
Epoch: May 4, 2026 • Age: 11 hours

Current Status

Altitude 493.7 km
Velocity 7.62 km/s
Sub-Earth Point -32.27°S, 157.57°E
Launch Date Jan 26, 2023
Age 3.2 years
Type internet

Technical Details

Classification Payload
Mass 305.00 kg
Dry Mass 290.00 kg
Total Mass 305.00 kg
Length 0.20 m
Diameter 2.80 m
Span 9.00 m
Shape Box + pan
Manufacturer SPXS
Bus Type Starlink
Phase Status In Orbit
Owner/State SPXS/US

Most Searched